COSMOS 1275 DEB, 42182

Orbit data source: Space-Track

COSMOS 1275 DEB, 42182 is space debris in LEO originally from a launch on Thu, 04 Jun 1981 UTC launched from the Plesetsk Missile And Space Complex (PKMTR). Debris objects in space refer to the collection of defunct objects orbiting the Earth. Examples of debris include non-operational satellites, rocket bodies, and fragments generated from explosions, collisions, or faulty payload assembly.

Loading next visibility...
Identifier
42182, 1981-053SW
Orbit
LEO
Country
Flag of CISCIS
Related business
Manufacturer
Unknown
Mission
Spacecraft
Bus & Motor
Unknown
Mass
Unknown
Launch date (UTC)
1981-06-04 (44 years ago)
Launch vehicle
Unknown
Launch site
Plesetsk Missile And Space Complex (PKMTR)
Object type
Payload
Rocket body
Debris
Shape & HBR
Unknown
Radar Cross Section
Small (<0.1 m²)

Expand to show TLE details & history
Last TLE update: 2 days ago

TLE from 2 days ago
0 COSMOS 1275 DEB
1 42182U 81053SW  25259.46306314  .00000285  00000-0  32906-3 0  9992
2 42182  82.9554 156.2989 0129994 273.7580 265.7138 13.62725926573952
Epoch: 2025-09-16T11:06Z
TLE epoch observation values (Epoch: 2025-09-16T11:06:48.655Z)
Latitude
1.89381°
Longitude
173.71026°
Altitude
1,036.896 km
Speed
7.329 km/s
True Right ascension
22h 24m 15s
True Declination
1° 52' 58"
Sunlit
Object was in full shadow at epoch
Visualization orbit readout
Latitude
Unknown
Longitude
Unknown
Altitude
Unknown
Speed
Unknown
Apparent Right ascension
Unknown
Apparent Declination
Unknown
Sunlit
N/A
Visualization observer readout
Local Sidereal Time
16:07:19
Azimuth
Unknown
Elevation
Unknown
Doppler factor
Unknown
Orbital elements
Apogee altitude
1,119.177 km
Perigee altitude
926.757 km
Semi-major axis
7,401.104 km
Eccentricity
0.013
Inclination
82.9554°
RAAN
156.2989°
Arg. of periapsis
273.758°
True anomaly
264.23031°
Mean anomaly
265.7138°
Eccentric anomaly
264.97186°
Mean motion
3.40878 °/min
Orbital period
105.61 mins
BSTAR
0.00032906
Loading maneuver chart data...
Computing Atmospheric mass density...
Loading historical data...
Loading historical data...
Loading historical data...
Loading historical data...
Loading historical data...
Loading historical data...
Loading historical data...

Documentation

Showing up to 5 results
|